Flag for Brazil Weather past 2 weeks in Porto Alegre, Rio Grande do Sul, Brazil

Now
84 °F

Passing clouds.


Feels Like: 84 °F
Forecast: 64 / 82 °F
Wind: 6 mph from Northwest

Location: Porto Alegre Aero-Porto

Current Time: May 22, 2015 at 4:29:04 PM

Latest Report: May 22, 2015 at 4:00 PM


Visibility: N/A

Pressure: 30.01 "Hg

Humidity: 45%

Dew point: 61 °F

Location of Porto AlegreLocation

Historic Weather in Porto Alegre — Graph

°F

Porto Alegre temperature yesterday

Maximum temperature yesterday: 84 °F (at 4:00 PM)
Minimum temperature yesterday: 61 °F (at 7:00 AM)
Average temperature yesterday: 72 °F

Past Weeks' High & Low Weather Summary

 TemperatureHumidityPressure
High84 °F (May 21, 4:00 PM)100% (May 8, 2:00 AM)30.27 "Hg (May 8, 2:00 AM)
Low50 °F (May 8, 3:00 AM)40% (May 21, 4:00 PM)29.95 "Hg (May 10, 3:00 PM)
Average67 °F81%30.13 "Hg
* Reported May 7 3:00 PM — May 22 3:00 PM, Porto Alegre, Weather by CustomWeather, © 2015

Note: Actual official high and low records may vary slightly from our data, if they occured in-between our weather recording intervals... More about our weather records

Advertising

Porto Alegre weather history for previous 24 hours

 ConditionsComfort  
Time TempWeatherWind HumidityBarometerVisibility
3:00 PM
Fri, May 22
84 °FPassing clouds.7 mph45%30.01 "HgN/A
2:00 PM84 °FPassing clouds.9 mph48%30.01 "HgN/A
1:00 PM82 °FPassing clouds.10 mph48%30.07 "HgN/A
12:00 PM81 °FPassing clouds.6 mph51%30.09 "HgN/A
11:00 AM77 °FSunny.10 mph57%30.12 "Hg10 mi
10:00 AM75 °FSunny.3 mph61%30.12 "Hg10 mi
9:00 AM70 °FSunny.1 mph78%30.12 "Hg10 mi
8:00 AM64 °FClear.3 mph88%30.12 "Hg5 mi
7:00 AM63 °FClear.No wind94%30.09 "Hg6 mi
6:00 AM61 °FClear.2 mph94%30.09 "Hg4 mi
5:00 AM63 °FClear.No wind88%30.09 "Hg10 mi
4:00 AM64 °FClear.2 mph88%30.09 "Hg10 mi
3:00 AM64 °FClear.2 mph88%30.09 "Hg10 mi
2:00 AM64 °FClear.1 mph94%30.09 "Hg10 mi
1:00 AM66 °FClear.2 mph88%30.09 "Hg10 mi
12:00 AM66 °FClear.5 mph88%30.09 "Hg10 mi
11:00 PM
Thu, May 21
68 °FClear.5 mph83%30.09 "Hg10 mi
10:00 PM70 °FClear.5 mph83%30.09 "Hg10 mi
9:00 PM70 °FClear.9 mph83%30.09 "Hg10 mi
8:00 PM73 °FClear.8 mph74%30.09 "Hg10 mi
7:00 PM75 °FClear.10 mph69%30.09 "Hg10 mi
6:00 PM73 °FClear.3 mph69%30.09 "Hg10 mi
5:00 PM82 °FClear.3 mph45%30.07 "Hg10 mi
4:00 PM84 °FSunny.5 mph40%30.07 "Hg10 mi
Weather by CustomWeather, © 2015

See weather overviewHow to use our weather pages